Big Lake, AK

9:01 PM AKDT on September 28, 2016 (GMT -0800)
Wasilla

Weather History for PAWS - October, 2013

Change the Weather History Date:

Monday, October 28, 2013

  Actual Average Record
Temperature  
Mean Temperature 48 °F -  
Max Temperature 55 °F 35 °F 55 °F (2013)
Min Temperature 41 °F 19 °F -14 °F (1971)
Degree Days  
Heating Degree Days 17    
Moisture  
Dew Point 37 °F    
Average Humidity 72    
Maximum Humidity 81    
Minimum Humidity 47    
Precipitation  
Precipitation 0.52 in - - ()
Sea Level Pressure  
Sea Level Pressure 29.36 in    
Wind  
Wind Speed 9 mph (ESE)    
Max Wind Speed 18 mph    
Max Gust Speed 41 mph    
Visibility 10 miles    
Events      
Averages and records for this station are not official NWS values.
T = Trace of Precipitation, MM = Missing Value Source: NWS Daily Summary

Daily Weather History Graph

Daily Weather History Graph

Search for Another Location

Airport or City:

Trip Planner

Search our weather history database for the weather conditions in past years. The results will help you decide how hot, cold, wet, or windy it might be!

Date:

Astronomy

Oct. 28, 2013 Rise Set
Actual Time 9:17 AM AKDT 6:04 PM AKDT
Civil Twilight 8:30 AM AKDT 6:51 PM AKDT
Nautical Twilight 7:39 AM AKDT 7:43 PM AKDT
Astronomical Twilight 6:48 AM AKDT 8:33 PM AKDT
Moon 1:43 AM AKDT (10/28) 4:18 PM AKDT (10/28)
Length of Visible Light 10h 20m
Length of Day
8h 47m
Waning Crescent, 33% of the Moon is Illuminated
Oct 28
Waning Crescent
Nov 3
New
Nov 9
First Quarter
Nov 17
Full
Nov 25
Last Quarter

Hourly Weather History & Observations

Time (AKDT) Temp. Windchill Dew Point Humidity Pressure Visibility Wind Dir Wind Speed Gust Speed Precip Events Conditions
12:16 AM 51.8 °F - 37.4 °F 58% 29.57 in 10.0 mi East 11.5 mph 21.9 mph N/A   Overcast
12:36 AM 51.8 °F - 37.4 °F 58% 29.59 in 8.0 mi East 10.4 mph 24.2 mph 0.02 in   Overcast
12:56 AM 50.0 °F - 39.2 °F 66% 29.59 in 10.0 mi ESE 6.9 mph - 0.03 in   Overcast
1:16 AM 48.2 °F - 39.2 °F 71% 29.59 in 8.0 mi ESE 8.1 mph 16.1 mph 0.04 in   Overcast
1:36 AM 48.2 °F - 39.2 °F 71% 29.58 in 10.0 mi ESE 4.6 mph - 0.13 in   Overcast
1:56 AM 48.2 °F - 37.4 °F 66% 29.56 in 10.0 mi East 9.2 mph 18.4 mph 0.15 in   Overcast
2:16 AM 50.0 °F - 37.4 °F 62% 29.55 in 10.0 mi East 12.7 mph 19.6 mph 0.01 in   Overcast
2:36 AM - - - N/A% 29.50 in 10.0 mi ENE 11.5 mph 19.6 mph 0.01 in   Overcast
2:56 AM - - - N/A% 29.51 in 9.0 mi East 16.1 mph 21.9 mph 0.02 in   Overcast
3:16 AM - - - N/A% 29.48 in 10.0 mi East 16.1 mph 26.5 mph N/A   Overcast
3:36 AM - - - N/A% 29.48 in 10.0 mi East 16.1 mph 27.6 mph N/A   Overcast
3:56 AM - - - N/A% 29.47 in 10.0 mi East 17.3 mph 31.1 mph N/A   Overcast
4:16 AM 53.6 °F - 35.6 °F 51% 29.46 in 9.0 mi East 15.0 mph 41.4 mph N/A   Overcast
4:36 AM - - - N/A% 29.46 in 10.0 mi East 18.4 mph 39.1 mph N/A   Overcast
4:56 AM - - - N/A% 29.44 in 10.0 mi East 17.3 mph 34.5 mph N/A   Overcast
5:16 AM 53.6 °F - 35.6 °F 51% 29.44 in 10.0 mi East 17.3 mph 32.2 mph N/A   Overcast
5:36 AM - - - N/A% 29.41 in 10.0 mi East 17.3 mph 32.2 mph N/A   Overcast
5:56 AM - - - N/A% 29.39 in 10.0 mi East 17.3 mph 27.6 mph N/A   Overcast
6:16 AM - - - N/A% 29.38 in 10.0 mi East 12.7 mph 25.3 mph N/A   Overcast
6:36 AM - - - N/A% 29.38 in 10.0 mi East 17.3 mph 29.9 mph N/A   Overcast
6:56 AM - - - N/A% 29.37 in 10.0 mi East 17.3 mph 31.1 mph N/A   Overcast
7:16 AM 55.4 °F - 35.6 °F 47% 29.36 in 10.0 mi East 16.1 mph 23.0 mph N/A   Mostly Cloudy
7:36 AM 55.4 °F - 35.6 °F 47% 29.38 in 10.0 mi WSW 6.9 mph 18.4 mph N/A   Scattered Clouds
7:56 AM 46.4 °F 44.3 °F 35.6 °F 66% 29.36 in 10.0 mi West 4.6 mph - N/A   Scattered Clouds
8:16 AM 46.4 °F 42.4 °F 35.6 °F 66% 29.33 in 10.0 mi SW 8.1 mph - N/A   Mostly Cloudy
8:36 AM 44.6 °F 40.2 °F 35.6 °F 71% 29.34 in 10.0 mi WSW 8.1 mph - N/A   Overcast
8:56 AM 42.8 °F 38.6 °F 35.6 °F 76% 29.32 in 10.0 mi WSW 6.9 mph - N/A   Overcast
9:16 AM 42.8 °F 38.6 °F 35.6 °F 76% 29.30 in 10.0 mi West 6.9 mph - N/A   Overcast
9:36 AM 42.8 °F 39.3 °F 35.6 °F 76% 29.29 in 10.0 mi WSW 5.8 mph - N/A   Overcast
9:56 AM 42.8 °F - 35.6 °F 76% 29.28 in 10.0 mi Calm Calm - N/A   Overcast
10:16 AM 42.8 °F - 35.6 °F 76% 29.29 in 10.0 mi Calm Calm - N/A   Overcast
10:36 AM 42.8 °F - 35.6 °F 76% 29.28 in 10.0 mi Calm Calm - N/A   Overcast
10:56 AM 42.8 °F - 37.4 °F 81% 29.27 in 10.0 mi Calm Calm - 0.01 in   Overcast
11:16 AM 42.8 °F 38.0 °F 37.4 °F 81% 29.26 in 10.0 mi ENE 8.1 mph - 0.01 in   Mostly Cloudy
11:36 AM 44.6 °F 42.2 °F 37.4 °F 76% 29.24 in 10.0 mi East 4.6 mph - 0.01 in   Overcast
11:56 AM 46.4 °F 41.9 °F 39.2 °F 76% 29.22 in 10.0 mi ENE 9.2 mph - 0.02 in   Overcast
12:16 PM 46.4 °F 41.9 °F 39.2 °F 76% 29.22 in 10.0 mi East 9.2 mph 24.2 mph N/A   Overcast
12:36 PM 46.4 °F 42.4 °F 41.0 °F 81% 29.21 in 10.0 mi East 8.1 mph - 0.02 in   Overcast
12:56 PM - - - N/A% 29.20 in 10.0 mi East 8.1 mph 16.1 mph 0.03 in   Overcast
1:16 PM 46.4 °F 41.1 °F 39.2 °F 76% 29.18 in 10.0 mi East 11.5 mph 17.3 mph 0.01 in   Overcast
1:36 PM 46.4 °F 41.9 °F 39.2 °F 76% 29.19 in 10.0 mi East 9.2 mph 18.4 mph 0.01 in   Overcast
1:56 PM 46.4 °F 44.3 °F 39.2 °F 76% 29.21 in 10.0 mi SE 4.6 mph - 0.04 in   Overcast
2:16 PM 46.4 °F 44.3 °F 41.0 °F 81% 29.23 in 10.0 mi South 4.6 mph - 0.05 in   Overcast
2:36 PM 46.4 °F 43.5 °F 41.0 °F 81% 29.24 in 10.0 mi SW 5.8 mph - 0.12 in   Overcast
2:56 PM 44.6 °F 38.1 °F 39.2 °F 81% 29.26 in 10.0 mi SW 13.8 mph 21.9 mph 0.17 in   Mostly Cloudy
3:16 PM 44.6 °F 39.7 °F 37.4 °F 76% 29.26 in 10.0 mi SW 9.2 mph - 0.02 in   Overcast
3:36 PM 44.6 °F 40.2 °F 37.4 °F 76% 29.27 in 10.0 mi SSW 8.1 mph - 0.04 in   Overcast
3:56 PM 44.6 °F 38.8 °F 37.4 °F 76% 29.28 in 10.0 mi South 11.5 mph 26.5 mph 0.04 in   Overcast
4:16 PM 44.6 °F 39.7 °F 37.4 °F 76% 29.29 in 10.0 mi South 9.2 mph 20.7 mph N/A   Overcast
4:36 PM 44.6 °F 40.2 °F 37.4 °F 76% 29.30 in 10.0 mi SSW 8.1 mph - N/A   Overcast
4:56 PM 44.6 °F 39.7 °F 37.4 °F 76% 29.31 in 10.0 mi South 9.2 mph - 0.01 in   Overcast
5:16 PM 46.4 °F 45.2 °F 35.6 °F 66% 29.30 in 10.0 mi SSW 3.5 mph - N/A   Overcast
5:36 PM 46.4 °F 45.2 °F 35.6 °F 66% 29.31 in 10.0 mi West 3.5 mph - N/A   Mostly Cloudy
5:56 PM 46.4 °F 44.3 °F 37.4 °F 71% 29.32 in 10.0 mi West 4.6 mph - N/A   Mostly Cloudy
6:16 PM 46.4 °F 43.5 °F 35.6 °F 66% 29.32 in 10.0 mi West 5.8 mph - N/A   Overcast
6:36 PM 46.4 °F 44.3 °F 37.4 °F 71% 29.33 in 10.0 mi SE 4.6 mph - N/A   Overcast
6:56 PM 44.6 °F 43.1 °F 35.6 °F 71% 29.33 in 10.0 mi SSE 3.5 mph - N/A   Scattered Clouds
7:16 PM 44.6 °F - 37.4 °F 76% 29.34 in 10.0 mi Calm Calm - N/A   Mostly Cloudy
7:36 PM 42.8 °F - 35.6 °F 76% 29.34 in 10.0 mi Calm Calm - N/A   Mostly Cloudy
7:56 PM 42.8 °F 41.1 °F 35.6 °F 76% 29.34 in 10.0 mi North 3.5 mph - N/A   Mostly Cloudy
8:16 PM 41.0 °F 38.0 °F 35.6 °F 81% 29.35 in 8.0 mi ENE 4.6 mph - N/A   Mostly Cloudy
8:36 PM 42.8 °F 41.1 °F 35.6 °F 76% 29.36 in 10.0 mi North 3.5 mph - N/A   Overcast
8:56 PM 42.8 °F - 35.6 °F 76% 29.36 in 10.0 mi Calm Calm - N/A   Overcast
9:16 PM 41.0 °F 39.0 °F 35.6 °F 81% 29.36 in 10.0 mi East 3.5 mph - N/A   Overcast
9:36 PM 42.8 °F - 35.6 °F 76% 29.37 in 10.0 mi Calm Calm - N/A   Overcast
9:56 PM 41.0 °F - 35.6 °F 81% 29.38 in 10.0 mi Calm Calm - N/A   Overcast
10:16 PM 42.8 °F - 35.6 °F 76% 29.38 in 10.0 mi Calm Calm - N/A   Overcast
10:36 PM 42.8 °F - 35.6 °F 76% 29.39 in 10.0 mi Calm Calm - N/A   Overcast
10:56 PM 42.8 °F 40.1 °F 35.6 °F 76% 29.39 in 10.0 mi NE 4.6 mph - N/A   Overcast
11:16 PM 42.8 °F - 35.6 °F 76% 29.40 in 10.0 mi Calm Calm - N/A   Overcast
11:36 PM 44.6 °F 42.2 °F 35.6 °F 71% 29.40 in 10.0 mi South 4.6 mph - N/A   Overcast
11:56 PM 44.6 °F 43.1 °F 35.6 °F 71% 29.41 in 10.0 mi WSW 3.5 mph - N/A   Overcast